When you browse on this site, cookies collect data to enhance your experience and personalize the content and advertising you see.
Visit our Privacy Policy to learn more. By continuing to use the site, you agree to this use of cookies and data.
  • In Czech Republic
  • List of Countries
  • For 7 days
  • Water Temperature
  • Satellite Maps
  • Weather Map
  • Weather Widgets
  • user-avatar
    Login

    Hourly Weather Charlottetown

    Today, 21 June, Friday

    Time Temperature Precipitation Wind Pressure Humidity
    00:00 +14°C° 0.8 mm 3 mps 751 mmHg 80%
    01:00 +13°C° 0.8 mm 3 mps 751 mmHg 87%
    02:00 +13°C° 0.8 mm 3 mps 751 mmHg 93%
    03:00 +12°C° 1.9 mm 3 mps 750 mmHg 95%
    04:00 +12°C° 1.9 mm 4 mps 750 mmHg 96%
    05:00 +12°C° 1.9 mm 5 mps 749 mmHg 97%
    06:00 +12°C° 0.9 mm 5 mps 749 mmHg 97%
    07:00 +13°C° 0.9 mm 5 mps 749 mmHg 97%
    08:00 +13°C° 0.9 mm 5 mps 748 mmHg 98%
    09:00 +13°C° 1.6 mm 4 mps 748 mmHg 98%
    10:00 +13°C° 1.6 mm 4 mps 747 mmHg 98%
    11:00 +13°C° 1.6 mm 4 mps 747 mmHg 98%
    12:00 +14°C° 3.9 mm 4 mps 746 mmHg 98%
    13:00 +14°C° 3.9 mm 5 mps 746 mmHg 98%
    14:00 +14°C° 3.9 mm 6 mps 746 mmHg 98%
    15:00 +14°C° 6.1 mm 7 mps 745 mmHg 98%
    16:00 +13°C° 6.1 mm 8 mps 744 mmHg 98%
    17:00 +13°C° 6.1 mm 9 mps 743 mmHg 98%
    18:00 +12°C° 7.1 mm 10 mps 742 mmHg 97%
    19:00 +12°C° 7.1 mm 11 mps 742 mmHg 97%
    20:00 +11°C° 7.1 mm 11 mps 742 mmHg 97%
    21:00 +10°C° 2.3 mm 12 mps 741 mmHg 96%
    22:00 +10°C° 2.3 mm 12 mps 741 mmHg 96%
    23:00 +10°C° 2.3 mm 12 mps 741 mmHg 95%

    Tomorrow, 22 June, Saturday

    Time Temperature Precipitation Wind Pressure Humidity
    00:00 +10°C° 1.7 mm 12 mps 741 mmHg 95%
    01:00 +10°C° 1.7 mm 12 mps 741 mmHg 94%
    02:00 +10°C° 1.7 mm 12 mps 741 mmHg 94%
    03:00 +11°C° 0.6 mm 11 mps 741 mmHg 94%
    04:00 +11°C° 0.6 mm 11 mps 742 mmHg 94%
    05:00 +11°C° 0.6 mm 10 mps 742 mmHg 93%
    06:00 +11°C° 0.2 mm 10 mps 742 mmHg 93%
    07:00 +11°C° 0.2 mm 10 mps 743 mmHg 92%
    08:00 +11°C° 0.2 mm 10 mps 744 mmHg 91%
    09:00 +11°C° 0.1 mm 10 mps 744 mmHg 89%
    10:00 +11°C° 0.1 mm 10 mps 744 mmHg 87%
    11:00 +12°C° 0.1 mm 10 mps 744 mmHg 86%
    12:00 +12°C° 0.1 mm 9 mps 745 mmHg 84%
    13:00 +12°C° 0.1 mm 9 mps 745 mmHg 82%
    14:00 +12°C° 0.1 mm 9 mps 746 mmHg 80%
    15:00 +12°C° 0 mm 8 mps 746 mmHg 80%
    16:00 +12°C° 0 mm 8 mps 746 mmHg 80%
    17:00 +12°C° 0 mm 8 mps 746 mmHg 80%
    18:00 +12°C° 0 mm 7 mps 746 mmHg 79%
    19:00 +13°C° 0 mm 6 mps 746 mmHg 78%
    20:00 +13°C° 0 mm 5 mps 746 mmHg 76%
    21:00 +13°C° 0 mm 5 mps 746 mmHg 75%
    22:00 +13°C° 0 mm 5 mps 746 mmHg 74%
    23:00 +13°C° 0 mm 5 mps 745 mmHg 73%

    Day after tomorrow, 23 June, Sunday

    Time Temperature Precipitation Wind Pressure Humidity
    00:00 +13°C° 0 mm 6 mps 745 mmHg 72%
    01:00 +13°C° 0 mm 6 mps 745 mmHg 70%
    02:00 +12°C° 0 mm 7 mps 745 mmHg 69%
    03:00 +12°C° 0 mm 7 mps 745 mmHg 70%
    04:00 +12°C° 0 mm 7 mps 745 mmHg 71%
    05:00 +12°C° 0 mm 7 mps 745 mmHg 73%
    06:00 +12°C° 0 mm 7 mps 745 mmHg 72%
    07:00 +13°C° 0 mm 8 mps 746 mmHg 71%
    08:00 +15°C° 0 mm 9 mps 746 mmHg 71%
    09:00 +15°C° 0 mm 9 mps 746 mmHg 69%
    10:00 +16°C° 0 mm 9 mps 747 mmHg 68%
    11:00 +16°C° 0 mm 8 mps 747 mmHg 66%
    12:00 +16°C° 0.1 mm 8 mps 747 mmHg 66%
    13:00 +16°C° 0.1 mm 8 mps 747 mmHg 67%
    14:00 +16°C° 0.1 mm 7 mps 748 mmHg 67%
    15:00 +14°C° 0 mm 7 mps 748 mmHg 72%
    16:00 +13°C° 0 mm 6 mps 749 mmHg 77%
    17:00 +12°C° 0 mm 5 mps 749 mmHg 82%
    18:00 +11°C° 0 mm 6 mps 750 mmHg 80%
    19:00 +11°C° 0 mm 6 mps 750 mmHg 77%
    20:00 +11°C° 0 mm 6 mps 750 mmHg 75%
    21:00 +11°C° 0.1 mm 6 mps 751 mmHg 76%
    22:00 +11°C° 0.1 mm 6 mps 751 mmHg 78%
    23:00 +10°C° 0.1 mm 6 mps 751 mmHg 80%

    24 June, Monday

    Time Temperature Precipitation Wind Pressure Humidity
    00:00 +10°C° 0.1 mm 6 mps 751 mmHg 81%
    01:00 +10°C° 0.1 mm 6 mps 751 mmHg 83%
    02:00 +10°C° 0.1 mm 6 mps 751 mmHg 85%
    03:00 +10°C° 0.2 mm 6 mps 751 mmHg 86%
    04:00 +10°C° 0.2 mm 6 mps 752 mmHg 86%
    05:00 +10°C° 0.2 mm 6 mps 752 mmHg 86%
    06:00 +10°C° 0.2 mm 6 mps 752 mmHg 86%
    07:00 +10°C° 0.2 mm 6 mps 753 mmHg 87%
    08:00 +11°C° 0.2 mm 6 mps 753 mmHg 87%
    09:00 +11°C° 0.2 mm 6 mps 754 mmHg 85%
    10:00 +11°C° 0.2 mm 7 mps 754 mmHg 83%
    11:00 +12°C° 0.2 mm 8 mps 754 mmHg 81%
    12:00 +12°C° 0.1 mm 8 mps 755 mmHg 79%
    13:00 +12°C° 0.1 mm 8 mps 755 mmHg 77%
    14:00 +13°C° 0.1 mm 8 mps 755 mmHg 75%
    15:00 +14°C° 0 mm 7 mps 756 mmHg 74%
    16:00 +14°C° 0 mm 7 mps 756 mmHg 74%
    17:00 +14°C° 0 mm 6 mps 756 mmHg 73%
    18:00 +13°C° 0 mm 5 mps 757 mmHg 78%
    19:00 +12°C° 0 mm 4 mps 757 mmHg 82%
    20:00 +11°C° 0 mm 3 mps 757 mmHg 87%
    21:00 +10°C° 0 mm 3 mps 758 mmHg 88%
    22:00 +10°C° 0 mm 3 mps 758 mmHg 89%
    23:00 +9°C° 0 mm 3 mps 759 mmHg 90%

    25 June, Tuesday

    Time Temperature Precipitation Wind Pressure Humidity
    00:00 +9°C° 0 mm 3 mps 759 mmHg 90%
    01:00 +9°C° 0 mm 3 mps 759 mmHg 91%
    02:00 +9°C° 0 mm 3 mps 759 mmHg 91%
    03:00 +8°C° 0 mm 4 mps 759 mmHg 91%
    04:00 +8°C° 0 mm 4 mps 760 mmHg 91%
    05:00 +8°C° 0 mm 4 mps 760 mmHg 91%
    06:00 +11°C° 0 mm 4 mps 760 mmHg 84%
    07:00 +13°C° 0 mm 4 mps 760 mmHg 77%
    08:00 +14°C° 0 mm 4 mps 761 mmHg 70%
    09:00 +16°C° 0 mm 3 mps 761 mmHg 67%
    10:00 +16°C° 0 mm 3 mps 761 mmHg 64%
    11:00 +17°C° 0 mm 2 mps 761 mmHg 61%
    12:00 +17°C° 0 mm 2 mps 761 mmHg 61%
    13:00 +17°C° 0 mm 2 mps 761 mmHg 62%
    14:00 +18°C° 0 mm 2 mps 761 mmHg 62%
    15:00 +17°C° 0 mm 2 mps 761 mmHg 64%
    16:00 +17°C° 0 mm 3 mps 761 mmHg 67%
    17:00 +17°C° 0 mm 3 mps 761 mmHg 69%
    18:00 +15°C° 0 mm 4 mps 761 mmHg 74%
    19:00 +13°C° 0 mm 4 mps 761 mmHg 79%
    20:00 +12°C° 0 mm 4 mps 762 mmHg 84%
    21:00 +11°C° 0 mm 4 mps 762 mmHg 82%
    22:00 +11°C° 0 mm 4 mps 762 mmHg 80%
    23:00 +10°C° 0 mm 3 mps 762 mmHg 78%

    26 June, Wednesday

    Time Temperature Precipitation Wind Pressure Humidity
    00:00 +11°C° 0 mm 3 mps 762 mmHg 78%
    01:00 +11°C° 0 mm 3 mps 762 mmHg 78%
    02:00 +12°C° 0 mm 2 mps 761 mmHg 78%
    03:00 +12°C° 0.4 mm 2 mps 761 mmHg 83%
    04:00 +12°C° 0.4 mm 2 mps 761 mmHg 89%
    05:00 +12°C° 0.4 mm 2 mps 762 mmHg 95%
    06:00 +13°C° 0.4 mm 2 mps 762 mmHg 96%
    07:00 +12°C° 0.4 mm 3 mps 761 mmHg 96%
    08:00 +12°C° 0.4 mm 4 mps 761 mmHg 97%
    09:00 +12°C° 0.3 mm 5 mps 761 mmHg 96%
    10:00 +12°C° 0.3 mm 5 mps 761 mmHg 96%
    11:00 +11°C° 0.3 mm 6 mps 761 mmHg 95%
    12:00 +13°C° 0.2 mm 6 mps 761 mmHg 95%
    13:00 +13°C° 0.2 mm 6 mps 760 mmHg 95%
    14:00 +13°C° 0.2 mm 6 mps 760 mmHg 95%
    15:00 +13°C° 0 mm 6 mps 760 mmHg 95%
    16:00 +14°C° 0 mm 5 mps 759 mmHg 95%
    17:00 +14°C° 0 mm 5 mps 759 mmHg 95%
    18:00 +14°C° 0 mm 4 mps 759 mmHg 95%
    19:00 +14°C° 0 mm 4 mps 759 mmHg 96%
    20:00 +14°C° 0 mm 3 mps 759 mmHg 97%
    21:00 +14°C° 0 mm 3 mps 759 mmHg 97%
    22:00 +14°C° 0 mm 2 mps 759 mmHg 97%
    23:00 +14°C° 0 mm 2 mps 759 mmHg 98%
    Show more